This is the latest recevied weather packets stored in our database for station/object N4ASP-13. If no packets are shown the sender has not sent any weather packets the latest 10 day(s).
| Time | Temp. | Humidity | Pressure | Rain* | Wind** | Luminosity | Snow |
|---|---|---|---|---|---|---|---|
| 1778003999 | 23.33° C | 44% | 1016.2 hPa | 0 mm | - | 657 W/m² | - |
| 1778003941 | 23.33° C | 43% | 1016.2 hPa | 0 mm | - | 988 W/m² | - |
| 1778003881 | 23.33° C | 42% | 1016.1 hPa | 0 mm | - | 988 W/m² | - |
| 1778003820 | 23.33° C | 42% | 1016.2 hPa | 0 mm | - | 1013 W/m² | - |
| 1778003759 | 23.33° C | 43% | 1016.2 hPa | 0 mm | - | 963 W/m² | - |
| 1778003700 | 23.33° C | 44% | 1016.2 hPa | 0 mm | - | 1162 W/m² | - |
| 1778003640 | 23.33° C | 43% | 1016 hPa | 0 mm | - | 1162 W/m² | - |
| 1778003580 | 23.33° C | 43% | 1016.1 hPa | 0 mm | - | 1162 W/m² | - |
| 1778003520 | 23.33° C | 46% | 1016.1 hPa | 0 mm | - | 1229 W/m² | - |
| 1778003461 | 23.33° C | 45% | 1016.2 hPa | 0 mm | - | 1204 W/m² | - |
| 1778003399 | 23.33° C | 43% | 1016.1 hPa | 0 mm | - | 1187 W/m² | - |
| 1778003334 | 23.33° C | 44% | 1016.2 hPa | 0 mm | - | 919 W/m² | - |
| 1778003273 | 23.33° C | 42% | 1016.2 hPa | 0 mm | - | 919 W/m² | - |
| 1778003213 | 23.33° C | 43% | 1016.1 hPa | 0 mm | - | 654 W/m² | - |
| 1778003152 | 23.33° C | 43% | 1016.1 hPa | 0 mm | - | 654 W/m² | - |
| 1778003093 | 23.33° C | 43% | 1016.2 hPa | 0 mm | - | 1016 W/m² | - |
| 1778003027 | 23.33° C | 44% | 1016.1 hPa | 0 mm | - | 1016 W/m² | - |
| 1778002966 | 22.78° C | 44% | 1016.1 hPa | 0 mm | - | 1143 W/m² | - |
| 1778002907 | 22.78° C | 46% | 1015.9 hPa | 0 mm | - | 1143 W/m² | - |
| 1778002845 | 22.78° C | 46% | 1016 hPa | 0 mm | - | 1143 W/m² | - |
| 1778002787 | 22.78° C | 44% | 1015.9 hPa | 0 mm | - | 1199 W/m² | - |
| 1778002721 | 22.78° C | 45% | 1015.9 hPa | 0 mm | - | 1194 W/m² | - |
| 1778002660 | 22.78° C | 44% | 1016 hPa | 0 mm | - | 1245 W/m² | - |
| 1778002598 | 22.78° C | 44% | 1016 hPa | 0 mm | - | 1230 W/m² | - |
| 1778002538 | 22.78° C | 44% | 1016 hPa | 0 mm | - | 1199 W/m² | - |
* Rain latest hour (hover to see other rain measurements)
** Current wind speed in m/s (hover to see current wind gust speed)